This demonstration page uses our WeatherBlox Daily Observations layout. Learn more.

Left ArrowRight Arrow

39.92423, -83.80882

Hourly Observations for March 13, 2020

Temp ( °F °C ) Dew Point ( °F °C ) Humidity (%) Winds ( mph kmh ) Pressure ( in mb ) Visibility ( mi km ) Precip ( " mm )
12:13 am 00:13 Cloudy with Light Rain 57 14 57 14 100 100 S 14 22 29.65 1004 10 16.0934 0.01 0.254
12:56 am 00:56 Cloudy with Light Rain 58 14.4 58 14.4 100 100 SW 14 22 29.65 1004 5 8.0467 0.03 0.762
1:17 am 01:17 Cloudy with Light Rain 57 14 57 14 100 100 WSW 16 26 29.66 1004 3 4.82802 0.04 1.016
1:45 am 01:45 Cloudy with Light Rain 55 13 55 13 100 100 NW 16 26 29.69 1005 9 14.48406 0.06 1.524
1:56 am 01:56 Cloudy with Light Rain 55 12.8 55 12.8 100 100 NW 12 19 29.7 1006 4 6.43736 0.06 1.524
2:07 am 02:07 Cloudy 55 13 55 13 100 100 NW 8 13 29.7 1006 10 16.0934 0.001 0.001
2:11 am 02:11 Cloudy 55 13 55 13 100 100 NW 9 15 29.7 1006 10 16.0934 0.001 0.001
2:25 am 02:25 Cloudy 55 13 55 13 100 100 WNW 13 20 29.72 1006 10 16.0934 0.001 0.001
2:39 am 02:39 Cloudy 55 13 55 13 100 100 W 12 19 29.72 1006 10 16.0934 0.001 0.001
2:49 am 02:49 Cloudy 55 13 55 13 100 100 WNW 15 24 29.73 1007 10 16.0934 0.001 0.001
2:56 am 02:56 Cloudy 55 12.8 55 12.8 100 100 WNW 15 24 29.73 1007 10 16.0934 0.001 0.001
3:56 am 03:56 Cloudy 54 12.2 54 12.2 100 100 WNW 21 33 29.76 1008 10 16.0934 0.01 0.254
4:56 am 04:56 Cloudy 53 11.7 53 11.7 100 100 W 20 31 29.81 1009 10 16.0934 0 0
5:20 am 05:20 Cloudy 52 11 52 11 100 100 W 20 31 29.85 1011 10 16.0934 0 0
5:56 am 05:56 Cloudy 51 10.6 47 8.3 86 86 W 23 37 29.88 1012 10 16.0934 0 0
6:08 am 06:08 Cloudy 48 9 45 7 87 87 NW 20 31 29.92 1013 10 16.0934 0 0
6:56 am 06:56 Mostly Cloudy 46 7.8 43 6.1 89 89 NW 12 19 29.96 1015 10 16.0934 0 0
7:56 am 07:56 Cloudy 44 6.7 39 3.9 83 83 WNW 13 20 30.01 1016 10 16.0934 0.01 0.254
8:56 am 08:56 Cloudy 42 5.6 39 3.9 89 89 W 17 28 30.06 1018 10 16.0934 0 0
9:37 am 09:37 Partly Cloudy 43 6 37 3 81 81 WNW 17 28 30.11 1020 10 16.0934 0 0
9:56 am 09:56 Mostly Cloudy 42 5.6 37 2.8 82 82 WNW 16 26 30.11 1020 10 16.0934 0 0
10:36 am 10:36 Partly Cloudy 43 6 36 2 76 76 W 18 30 30.15 1021 10 16.0934 0 0
10:56 am 10:56 Mostly Sunny 44 6.7 35 1.7 71 71 W 22 35 30.14 1021 10 16.0934 0 0
11:56 am 11:56 Partly Cloudy 46 7.8 36 2.2 68 68 WSW 17 28 30.16 1022 10 16.0934 0 0
12:56 pm 12:56 Sunny 47 8.3 28 -2.2 48 48 W 20 31 30.2 1023 10 16.0934 0 0
1:56 pm 13:56 Sunny 48 8.9 32 0 54 54 W 21 33 30.21 1023 10 16.0934 0 0
2:56 pm 14:56 Sunny 48 8.9 31 -0.6 52 52 W 18 30 30.22 1024 10 16.0934 0 0
3:56 pm 15:56 Sunny 49 9.4 31 -0.6 50 50 W 18 30 30.23 1024 10 16.0934 0 0
4:56 pm 16:56 Sunny 49 9.4 29 -1.7 46 46 W 15 24 30.25 1024 10 16.0934 0 0
5:56 pm 17:56 Sunny 48 8.9 27 -2.8 44 44 W 17 28 30.27 1025 10 16.0934 0 0
6:56 pm 18:56 Sunny 47 8.3 24 -4.4 41 41 WNW 13 20 30.3 1026 10 16.0934 0 0
7:56 pm 19:56 Clear 44 6.7 27 -2.8 51 51 W 12 19 30.32 1027 10 16.0934 0 0
8:56 pm 20:56 Clear 41 5 29 -1.7 62 62 W 7 11 30.36 1028 10 16.0934 0 0
9:56 pm 21:56 Clear 40 4.4 28 -2.2 63 63 WNW 9 15 30.37 1028 10 16.0934 0 0
10:56 pm 22:56 Clear 38 3.3 29 -1.7 70 70 W 7 11 30.39 1029 10 16.0934 0 0
11:56 pm 23:56 Clear 37 2.8 28 -2.2 70 70 W 7 11 30.4 1030 10 16.0934 0 0

Powered by AerisWeather